Regional Weather Roundup
Issued by NWS

Home | Current Version | Previous Version | Graphics & Text | Print | Product List | Glossary On
Versions: 1 2 3 4 5 6 7 8 9 10 11 12 13 14 15 16 17 18 19 20 21 22 23 24 25 26 27 28 29 30 31 32 33 34 35 36 37 38 39 40 41 42 43 44 45 46 47 48 49 50
000
ASUS43 KMKX 251659
RWRWI

WISCONSIN REGIONAL WEATHER ROUNDUP
NATIONAL WEATHER SERVICE MILWAUKEE/SULLIVAN WI
1100 AM CST SUN FEB 25 2018

NOTE: "FAIR" INDICATES FEW OR NO CLOUDS BELOW 12,000 FEET WITH NO
SIGNIFICANT WEATHER AND/OR OBSTRUCTIONS TO VISIBILITY.

WIZ001-002-006>008-014>016-023>028-251800-
NORTHWEST WISCONSIN

CITY           SKY/WX    TMP DP  RH WIND       PRES   REMARKS
SUPERIOR ARPT  CLOUDY    27  19  71 W15G28    29.53R WCI  16
ASHLAND        CLOUDY    25  19  78 SW22G29   29.51R WCI  10
HAYWARD        CLOUDY    23  18  81 SW10G23   29.56R WCI  12
SIREN          CLOUDY    23  17  80 W17G24    29.62R WCI   9
CUMBERLAND     CLOUDY    21  18  86 SW20      29.62R WCI   6
RICE LAKE      CLOUDY    23  18  83 SW16      29.66R WCI   9
CHETEK         CLOUDY    22  17  81 SW14G22   29.65R WCI   9
LADYSMITH      CLOUDY    23  19  84 SW13      29.63R WCI  11
EAU CLAIRE     FAIR      23  15  71 SW15G25   29.70R WCI  10
MENOMONIE      FAIR      24  15  69 SW17      29.71R WCI  10
NEW RICHMOND   FAIR      21  13  71 SW14      29.68R WCI   8
OSCEOLA        PTSUNNY   22  13  70 SW15      29.72R WCI   9
$$

WIZ003>005-009-010-017-018-251800-
NORTH CENTRAL WISCONSIN

CITY           SKY/WX    TMP DP  RH WIND       PRES   REMARKS
MANITOWISH WTR CLOUDY    21  19  92 W16G29    29.48R FOG     WCI   7
ARBOR VITAE    CLOUDY    22  18  87 W18G25    29.50R FOG     WCI   7
WOODRUFF       CLOUDY    22  18  87 W18G25    29.50R FOG     WCI   7
RHINELANDER    MIX PCPN  20  16  84 W17G30    29.54R FOG     WCI   5
EAGLE RIVER    CLOUDY    20  15  81 W22G29    29.48R HAZE    WCI   4
LAND O LAKES   CLOUDY    23  18  82 W13G21    29.47R WCI  11
PHILLIPS       CLOUDY    19  17  91 SW15G23   29.56R WCI   5
TOMAHAWK       CLOUDY    19  15  83 W7        29.57R FOG     WCI  10
MEDFORD        CLOUDY    20  16  85 W17G28    29.61R FOG     WCI   5
MERRILL        CLOUDY    21  17  85 W20G26    29.62R FOG     WCI   6
$$

WIZ029-030-035-036-043>047-251800-
CENTRAL WISCONSIN

CITY           SKY/WX    TMP DP  RH WIND       PRES   REMARKS
WAUSAU         CLOUDY    22  18  85 W18G28    29.62R WCI   7
MOSINEE        CLOUDY    21  19  93 SW15G22   29.65R WCI   8
MARSHFIELD     CLOUDY    23  18  81 SW22G30   29.65R WCI   8
STEVENS POINT  CLOUDY    22  19  91 SW10G16   29.67R WCI  11
WAUPACA        PTSUNNY   29  21  71 W21G32    29.69R WCI  16
WAUTOMA        FAIR      31  20  63 W24G32    29.72R WCI  17
WISC RAPIDS    CLOUDY    25  18  74 MISG      29.71R
CAMP DOUGLAS   NOT AVBL
$$

WIZ011>013-019>022-031-037>040-048>050-251800-
NORTHEAST WISCONSIN

CITY           SKY/WX    TMP DP  RH WIND       PRES   REMARKS
ANTIGO         CLOUDY    20  17  87 W25G33    29.57R FOG     WCI   2
SHAWANO        CLOUDY    27  21  77 W18G25    29.64R WCI  14
OCONTO         NOT AVBL
STURGEON BAY   PTSUNNY   29  21  72 SW28G41   29.61R WCI  14
GREEN BAY      CLOUDY    28  19  69 SW18G33   29.68R WCI  15
MANITOWOC      FAIR      30  20  66 W25G37    29.69R WCI  16
APPLETON       PTSUNNY   28  18  64 SW24G30   29.67R WCI  14
CLINTONVILLE   CLOUDY    26  19  76 W18G25    29.67R WCI  12
OSHKOSH        FAIR      30  21  69 SW13G23   29.72R WCI  20
$$

WIZ032>034-041-042-053>061-251800-
SOUTHWEST WISCONSIN

CITY           SKY/WX    TMP DP  RH WIND       PRES   REMARKS
LA CROSSE      FAIR      28  18  66 W9        29.78R WCI  19
SPARTA         FAIR      27  19  71 W9G21     29.76R WCI  18
VIROQUA        FAIR      26  21  82 SW13G18   29.75S WCI  15
BOSCOBEL       FAIR      33  19  56 SW9G18    29.83R WCI  25
PRAIRIE DU CHI FAIR      31  17  55 W12       29.84S WCI  22
PLATTEVILLE    FAIR      30  23  73 SW18      29.84S WCI  18
$$

WIZ056-057-062-063-064-067-068-251800-
SOUTH CENTRAL WISCONSIN

CITY           SKY/WX    TMP DP  RH WIND       PRES   REMARKS
REEDSBURG      FAIR      31  20  63 SW14G21   29.77S WCI  20
BARABOO/DELLS  FAIR      29  20  70 SW13      29.76R WCI  18
LONE ROCK      NOT AVBL
MINERAL POINT  FAIR      32  25  74 SW13G20   29.82R WCI  22
MADISON        FAIR      30  20  66 SW10G23   29.81R WCI  21
MIDDLETON      FAIR      32  22  67 W14G22    29.80R WCI  22
WATERTOWN      FAIR      32  22  66 SW17G28   29.79R WCI  20
MONROE         FAIR      30  19  64 SW26      29.83R WCI  16
JANESVILLE     SUNNY     34  23  64 W17G25    29.85R WCI  23
$$

WIZ051-052-058>065-066-070>072-251800-
SOUTHEAST WISCONSIN

CITY           SKY/WX    TMP DP  RH WIND       PRES   REMARKS
MILWAUKEE      FAIR      36  22  56 W21G37    29.80R WCI  25
WAUKESHA       SUNNY     30  21  69 SW18G28   29.81R WCI  18
MILWAUKEE/TIMM SUNNY     34  19  55 W23       29.78R WCI  22
RACINE         FAIR      36  23  59 W16G33    29.82R WCI  26
BURLINGTON     FAIR      33  22  65 W16G24    29.84R WCI  23
KENOSHA        FAIR      38  24  57 W24G32    29.83R WCI  27
FOND DU LAC    FAIR      32  19  58 W22G33    29.74R WCI  19
SHEBOYGAN      FAIR      33  23  66 W23G32    29.72R WCI  21
WEST BEND      FAIR      32  23  69 W22G32    29.73R WCI  19
JUNEAU         FAIR      29  20  70 SW23G35   29.79R WCI  15
$$

LSZ147-162-251800-
LAKE SUPERIOR

STATION/POSITION TIME  TEMP    WIND        PRES    WAVE
                       AIR SEA DIR/SP/G            HT/PER
                 (UTC) (F)     (DEG/KT/KT) (MB)    (FT/S)
DEVILS ISLAND    1600   27     250/ 30/ 36  996.7R
SAXON HARBOR     1630   26     230/ 12/ 17  999.0R
$$

LMZ867-665-643>646-251800-
LAKE MICHIGAN

STATION/POSITION TIME  TEMP    WIND        PRES    WAVE
                       AIR SEA DIR/SP/G            HT/PER
                 (UTC) (F)     (DEG/KT/KT) (MB)    (FT/S)
NORTHPORT PIER   1640   29                 1001.0R
KEWAUNEE LAKESHO 1630   30     260/ 17/ 27 1003.2R
SHEBOYGAN LAKESH 1600   31     250/ 27/ 31 1006.0R
PORT WASHINGTON  1640   34     260/ 16/ 26 1008.8R
KENOSHA   LAKESH 1600   35     260/ 19/ 27 1009.5
$$

TC  - TEMPERATURE IN CELSIUS
VSB - VISIBILITY IN STATUTE MILES
WCI - WIND CHILL INDEX
HX  - HEAT INDEX





USA.gov is the U.S. government's official web portal to all federal, state and local government web resources and services.